TimeEDT,TemperatureF,Dew PointF,Humidity,Sea Level PressureIn,VisibilityMPH,Wind Direction,Wind SpeedMPH,Gust SpeedMPH,PrecipitationIn,Events,Conditions,WindDirDegrees,DateUTC
12:15 AM,48.2,44.6,87,29.89,0.5,Calm,Calm,-,N/A,,Overcast,0,2012-10-15 04:15:00
12:35 AM,48.2,44.6,87,29.88,0.2,Calm,Calm,-,N/A,,Overcast,0,2012-10-15 04:35:00
12:55 AM,48.2,44.6,87,29.88,0.2,Calm,Calm,-,N/A,,Overcast,0,2012-10-15 04:55:00
1:15 AM,48.2,44.6,87,29.87,0.2,Calm,Calm,-,N/A,,Overcast,0,2012-10-15 05:15:00
1:35 AM,48.2,46.4,93,29.86,0.2,Calm,Calm,-,N/A,,Overcast,0,2012-10-15 05:35:00
1:55 AM,48.2,46.4,93,29.86,0.2,Calm,Calm,-,N/A,,Overcast,0,2012-10-15 05:55:00
2:15 AM,48.2,46.4,93,29.84,0.2,Calm,Calm,-,N/A,,Overcast,0,2012-10-15 06:15:00
2:55 AM,48.2,46.4,93,29.83,0.2,Calm,Calm,-,N/A,,Overcast,0,2012-10-15 06:55:00
3:15 AM,48.2,46.4,93,29.82,0.2,Calm,Calm,-,N/A,,Overcast,0,2012-10-15 07:15:00
3:35 AM,48.2,46.4,93,29.81,0.2,Calm,Calm,-,N/A,,Overcast,0,2012-10-15 07:35:00
3:55 AM,48.2,46.4,93,29.81,0.2,Calm,Calm,-,N/A,,Overcast,0,2012-10-15 07:55:00
4:15 AM,48.2,46.4,93,29.81,0.2,Calm,Calm,-,N/A,,Overcast,0,2012-10-15 08:15:00
4:35 AM,48.2,44.6,87,29.80,0.2,Calm,Calm,-,N/A,,Overcast,0,2012-10-15 08:35:00
4:55 AM,48.2,44.6,87,29.79,0.2,Calm,Calm,-,N/A,,Overcast,0,2012-10-15 08:55:00
5:15 AM,48.2,44.6,87,29.79,0.2,Calm,Calm,-,N/A,,Overcast,0,2012-10-15 09:15:00
5:55 AM,48.2,44.6,87,29.77,0.2,Calm,Calm,-,N/A,,Overcast,0,2012-10-15 09:55:00
6:15 AM,48.2,44.6,87,29.76,0.2,Calm,Calm,-,N/A,,Overcast,0,2012-10-15 10:15:00
6:55 AM,48.2,46.4,93,29.75,0.2,Calm,Calm,-,N/A,,Overcast,0,2012-10-15 10:55:00
7:15 AM,48.2,46.4,93,29.73,0.2,Calm,Calm,-,N/A,,Overcast,0,2012-10-15 11:15:00
7:35 AM,48.2,46.4,93,29.73,0.2,Calm,Calm,-,N/A,,Overcast,0,2012-10-15 11:35:00
7:55 AM,48.2,46.4,93,29.74,0.8,Calm,Calm,-,N/A,,Overcast,0,2012-10-15 11:55:00
8:55 AM,51.8,48.2,88,29.74,5.0,Calm,Calm,-,N/A,,Overcast,0,2012-10-15 12:55:00
9:15 AM,51.8,48.2,88,29.74,7.0,Calm,Calm,-,N/A,,Overcast,0,2012-10-15 13:15:00
10:15 AM,53.6,51.8,94,29.73,9.0,Calm,Calm,-,N/A,,Overcast,0,2012-10-15 14:15:00
10:35 AM,55.4,51.8,88,29.72,10.0,East,3.5,-,N/A,,Overcast,90,2012-10-15 14:35:00
10:55 AM,55.4,53.6,94,29.71,10.0,NW,3.5,-,N/A,,Overcast,320,2012-10-15 14:55:00
11:15 AM,57.2,55.4,94,29.71,10.0,Calm,Calm,-,N/A,,Overcast,0,2012-10-15 15:15:00
12:15 PM,62.6,57.2,82,29.70,10.0,SW,8.1,-,N/A,,Overcast,220,2012-10-15 16:15:00
12:35 PM,64.4,57.2,77,29.68,10.0,SSW,9.2,-,N/A,,Mostly Cloudy,210,2012-10-15 16:35:00
12:55 PM,66.2,57.2,73,29.67,10.0,SSW,11.5,16.1,N/A,,Scattered Clouds,200,2012-10-15 16:55:00
1:15 PM,64.4,57.2,77,29.66,10.0,South,16.1,19.6,N/A,,Mostly Cloudy,190,2012-10-15 17:15:00